Location: Unnamed
(48.2382°N, 16.3826°E)
Time: 10:04:15
(UTC+02:00)

Falcon 9 debris - Pass Details

Date: 21 August 2020
Orbit: 426 x 434 km, 53.0° (Epoch: 23 September)

Event Time Altitude Azimuth Distance (km) Brightness Sun altitude
Rises 20:33:29 0° 290° (WNW) 2,409 ? -6.5°
Reaches altitude 10° 20:35:41 10° 298° (WNW) 1,542 ? -6.8°
Maximum altitude 20:38:58 40° 10° (N) 660 ? -7.3°
Drops below altitude 10° 20:42:16 10° 81° (E) 1,542 ? -7.8°
Enters shadow 20:42:52 - 84° (E) 1,779 ? -7.9°
